Preview of NWS' New Version of Forecast
This preview is not operational and should not be used for support decisions.

Regional Weather Roundup (RWR)

Issued by National Weather Service (NWS)

                            
000
ASUS46 KSEW 190410
RWRWA 

WASHINGTON REGIONAL WEATHER ROUNDUP
NATIONAL WEATHER SERVICE SEATTLE WA
900 PM PDT SUN AUG 18 2019

NOTE:"FAIR" INDICATES FEW OR NO CLOUDS BELOW 12,000 FEET WITH NO 
SIGNIFICANT WEATHER AND/OR OBSTRUCTIONS TO VISIBILITY.

WAZ507-509-555>559-190500-
SEATTLE, TACOMA, EVERETT, AND VICINITY
  
CITY           SKY/WX    TMP DP  RH WIND       PRES   REMARKS
EVERETT        CLEAR     60  53  77 N7        29.89R                  
BOEING FIELD   CLEAR     65  53  65 NW5       29.86R                  
RENTON         CLEAR     69  56  62 CALM      29.86R                  
SEATAC AIRPORT PTCLDY    66  55  67 W5        29.87R                  
JBLM-MCCHORD   CLEAR     67  60  76 CALM      29.87R                  
PUYALLUP       FAIR      63  59  88 CALM      29.88R                  
BREMERTON      NOT AVBL                                               
JBLM-FT LEWIS  NOT AVBL                                               
TACOMA NARROWS CLEAR     65  55  70 CALM      29.88R                  
$$
 
WAZ001-503-506-510-514-515-190500-
NORTH INTERIOR
  
CITY           SKY/WX    TMP DP  RH WIND       PRES   REMARKS
BELLINGHAM     CLEAR     63  53  70 S7        29.84R                  
FRIDAY HARBOR  CLEAR     60  52  74 W7        29.84S                  
EASTSOUND      CLEAR     63  54  72 S14       29.82R                  
PORT ANGELES   CLEAR     58  53  84 W10       29.89R                  
EDIZ HOOK      FAIR      58  54  84 W14G20    29.88R                  
PORT TOWNSEND  MOCLDY    61  54  77 CALM      29.87R                  
NAS WHIDBEY    PTCLDY    61  52  72 SW10      29.90S                  
ARLINGTON      MOCLDY    62  53  72 NW6       29.89R                  
BURLINGTON     CLEAR     57  52  82 CALM      29.88R                  
$$
 
WAZ020-022-039-040-504-511-512-190500-
SOUTHWEST INTERIOR
  
CITY           SKY/WX    TMP DP  RH WIND       PRES   REMARKS
SHELTON        CLEAR     64  54  69 SW9       29.85R                  
OLYMPIA        CLEAR     65  55  70 SW6       29.87R                  
CHEHALIS       FAIR      64  57  77 CALM      29.88S                  
KELSO          CLEAR     65  57  75 NW6       29.89R                  
VANCOUVER      CLEAR     69  55  60 NW6       29.85R                  
SCAPPOOSE, OR  CLEAR     67  55  65 N6        29.85R                  
PORTLAND, OR   CLEAR     70  56  61 N6        29.85R                  
$$
 
WAZ021-516-517-190500-
WASHINGTON COAST
  
CITY           SKY/WX    TMP DP  RH WIND       PRES   REMARKS
FORKS          CLOUDY    61  54  77 NW3       29.90R                  
HOQUIAM        PTCLDY    61  58  90 W10       29.90R                  
ASTORIA, OR    CLEAR     58  55  90 W5        29.90R                  
$$
 
WAZ019-023-024-040-567>569-190500-
CASCADE MOUNTAINS AND COLUMBIA GORGE
  
CITY           SKY/WX    TMP DP  RH WIND       PRES   REMARKS
STAMPEDE PASS  CLEAR     54  51  90 S6        29.95R                  
TROUTDALE, OR  CLEAR     70  56  61 CALM      29.85R                  
HOOD RIVER, OR CLEAR     70  52  52 CALM      29.80R                  
THE DALLES, OR CLEAR     74  54  49 NW9       29.74R                  
$$

WAZ026-027-041>044-520-521-190500-
EAST SLOPES
  
CITY           SKY/WX    TMP DP  RH WIND       PRES   REMARKS
OMAK           CLEAR     80  44  27 S8        29.69R                  
WENATCHEE      CLEAR     78  44  29 NW13      29.72R                  
ELLENSBURG     CLEAR     72  50  45 NW16G28   29.78R                  
YAKIMA         CLEAR     79  48  33 NW8       29.72R                  
SUNNYSIDE ARPT CLEAR     69  59  71 CALM      29.70R                  
YAKIMA TC      FAIR      74  45  36 SE5       29.73R                  
$$

WAZ028-034-035-190500-
COLUMBIA BASIN
  
CITY           SKY/WX    TMP DP  RH WIND       PRES   REMARKS
EPHRATA        CLEAR     75  48  38 CALM      29.71R                  
MOSES LAKE     CLEAR     78  51  38 SE6       29.71R                  
PASCO          CLEAR     76  56  49 E3        29.68R                  
RICHLAND ARPT  CLEAR     80  56  44 MISG      29.68R                  
HERMISTON, OR  CLEAR     78  45  30 SW10      29.70R                  
$$

WAZ036>038-190500-
NORTHEAST WASHINGTON
  
CITY           SKY/WX    TMP DP  RH WIND       PRES   REMARKS
SPOKANE GEIGER PTCLDY    75  34  22 S7        29.78R                  
SPOKANE FELTS  CLEAR     69  40  34 CALM      29.76R                  
FAIRCHILD AFB  CLEAR     71  34  26 SW5       29.78R                  
COEURDALENE,ID CLEAR     69  47  45 NE5       29.78R                  
DEER PARK      CLEAR     62  47  57 CALM      29.76S                  
$$

WAZ029>033-190500-
SOUTHEAST WASHINGTON
  
CITY           SKY/WX    TMP DP  RH WIND       PRES   REMARKS
PULLMAN        CLEAR     66  37  34 CALM      29.82R                  
LEWISTON, ID   CLEAR     83  33  16 W3        29.73R                  
WALLA WALLA    CLEAR     77  44  30 E5        29.73R                  
PENDLETON, OR  CLEAR     78  40  25 CALM      29.75R                  
$$